When you browse on this site, cookies collect data to enhance your experience and personalize the content and advertising you see.
Visit our Privacy Policy to learn more. By continuing to use the site, you agree to this use of cookies and data.
  • In Schweiz
  • Länderverzeichnis
  • Für 7 Tage
  • Wassertemperatur
  • Satellitenkarten
  • Wetterkarte
  • Widgets
  • user-avatar
    Anmelden

    Stündliche Wetter Kaarst

    Heute, 26 Mai, Sonntag

    Zeit Temperatur Niederschläge Wind Luftdruck Luftfeuchtigkeit
    00:00 +14°C° 0 mm 1 m/S 759 mmHg 76%
    01:00 +13°C° 0 mm 2 m/S 759 mmHg 79%
    02:00 +13°C° 0 mm 2 m/S 758 mmHg 82%
    03:00 +12°C° 0 mm 2 m/S 758 mmHg 86%
    04:00 +12°C° 0 mm 3 m/S 758 mmHg 82%
    05:00 +13°C° 0 mm 3 m/S 758 mmHg 78%
    06:00 +14°C° 0 mm 3 m/S 758 mmHg 75%
    07:00 +15°C° 0 mm 4 m/S 757 mmHg 70%
    08:00 +18°C° 0 mm 4 m/S 757 mmHg 64%
    09:00 +20°C° 0 mm 4 m/S 757 mmHg 59%
    10:00 +20°C° 0.1 mm 5 m/S 757 mmHg 61%
    11:00 +20°C° 0.1 mm 5 m/S 756 mmHg 62%
    12:00 +21°C° 0.1 mm 5 m/S 756 mmHg 64%
    13:00 +21°C° 0 mm 5 m/S 756 mmHg 63%
    14:00 +21°C° 0 mm 5 m/S 755 mmHg 61%
    15:00 +21°C° 0 mm 5 m/S 755 mmHg 60%
    16:00 +21°C° 0 mm 5 m/S 755 mmHg 62%
    17:00 +21°C° 0 mm 5 m/S 755 mmHg 64%
    18:00 +20°C° 0 mm 4 m/S 754 mmHg 66%
    19:00 +19°C° 0 mm 4 m/S 754 mmHg 70%
    20:00 +18°C° 0 mm 4 m/S 754 mmHg 74%
    21:00 +15°C° 0 mm 4 m/S 754 mmHg 78%
    22:00 +15°C° 0 mm 4 m/S 754 mmHg 80%
    23:00 +14°C° 0 mm 4 m/S 754 mmHg 82%

    Morgen, 27 Mai, Montag

    Zeit Temperatur Niederschläge Wind Luftdruck Luftfeuchtigkeit
    00:00 +14°C° 0 mm 4 m/S 754 mmHg 85%
    01:00 +14°C° 0.5 mm 4 m/S 753 mmHg 87%
    02:00 +14°C° 0.5 mm 4 m/S 753 mmHg 89%
    03:00 +14°C° 0.5 mm 4 m/S 753 mmHg 91%
    04:00 +14°C° 0.4 mm 3 m/S 753 mmHg 90%
    05:00 +14°C° 0.4 mm 3 m/S 753 mmHg 89%
    06:00 +15°C° 0.4 mm 2 m/S 753 mmHg 88%
    07:00 +16°C° 0 mm 3 m/S 754 mmHg 80%
    08:00 +17°C° 0 mm 3 m/S 754 mmHg 72%
    09:00 +18°C° 0 mm 3 m/S 754 mmHg 64%
    10:00 +19°C° 0 mm 4 m/S 754 mmHg 59%
    11:00 +20°C° 0 mm 4 m/S 754 mmHg 53%
    12:00 +20°C° 0 mm 4 m/S 754 mmHg 48%
    13:00 +20°C° 0 mm 4 m/S 753 mmHg 48%
    14:00 +20°C° 0 mm 4 m/S 753 mmHg 48%
    15:00 +19°C° 0 mm 4 m/S 753 mmHg 48%
    16:00 +19°C° 0 mm 4 m/S 753 mmHg 51%
    17:00 +18°C° 0 mm 3 m/S 753 mmHg 54%
    18:00 +18°C° 0 mm 3 m/S 753 mmHg 56%
    19:00 +17°C° 0 mm 2 m/S 753 mmHg 59%
    20:00 +16°C° 0 mm 1 m/S 753 mmHg 62%
    21:00 +15°C° 0 mm 1 m/S 753 mmHg 64%
    22:00 +14°C° 0 mm 1 m/S 753 mmHg 66%
    23:00 +14°C° 0 mm 1 m/S 753 mmHg 69%

    übermorgen, 28 Mai, Dienstag

    Zeit Temperatur Niederschläge Wind Luftdruck Luftfeuchtigkeit
    00:00 +14°C° 0 mm 2 m/S 752 mmHg 71%
    01:00 +13°C° 0.1 mm 2 m/S 752 mmHg 76%
    02:00 +12°C° 0.1 mm 3 m/S 752 mmHg 81%
    03:00 +11°C° 0.1 mm 3 m/S 752 mmHg 87%
    04:00 +11°C° 0.2 mm 3 m/S 752 mmHg 86%
    05:00 +11°C° 0.2 mm 3 m/S 751 mmHg 86%
    06:00 +11°C° 0.2 mm 3 m/S 751 mmHg 86%
    07:00 +12°C° 0.5 mm 3 m/S 751 mmHg 80%
    08:00 +14°C° 0.5 mm 3 m/S 751 mmHg 74%
    09:00 +16°C° 0.5 mm 3 m/S 751 mmHg 67%
    10:00 +17°C° 0.4 mm 3 m/S 751 mmHg 63%
    11:00 +18°C° 0.4 mm 4 m/S 751 mmHg 59%
    12:00 +19°C° 0.4 mm 4 m/S 751 mmHg 55%
    13:00 +18°C° 0.9 mm 4 m/S 751 mmHg 56%
    14:00 +18°C° 0.9 mm 4 m/S 751 mmHg 57%
    15:00 +18°C° 0.9 mm 4 m/S 751 mmHg 58%
    16:00 +18°C° 0.3 mm 4 m/S 752 mmHg 61%
    17:00 +17°C° 0.3 mm 3 m/S 752 mmHg 65%
    18:00 +17°C° 0.3 mm 3 m/S 753 mmHg 68%
    19:00 +16°C° 0.7 mm 3 m/S 753 mmHg 72%
    20:00 +13°C° 0.7 mm 3 m/S 754 mmHg 76%
    21:00 +12°C° 0.7 mm 4 m/S 755 mmHg 81%
    22:00 +12°C° 0.1 mm 3 m/S 755 mmHg 82%
    23:00 +11°C° 0.1 mm 3 m/S 756 mmHg 83%

    29 Mai, Mittwoch

    Zeit Temperatur Niederschläge Wind Luftdruck Luftfeuchtigkeit
    00:00 +10°C° 0.1 mm 3 m/S 756 mmHg 85%
    01:00 +9°C° 0 mm 3 m/S 757 mmHg 83%
    02:00 +9°C° 0 mm 3 m/S 757 mmHg 82%
    03:00 +8°C° 0 mm 3 m/S 758 mmHg 81%
    04:00 +9°C° 0 mm 3 m/S 758 mmHg 79%
    05:00 +9°C° 0 mm 3 m/S 759 mmHg 77%
    06:00 +10°C° 0 mm 3 m/S 759 mmHg 75%
    07:00 +12°C° 0 mm 2 m/S 760 mmHg 68%
    08:00 +14°C° 0 mm 2 m/S 760 mmHg 62%
    09:00 +15°C° 0 mm 2 m/S 760 mmHg 56%
    10:00 +16°C° 0 mm 2 m/S 761 mmHg 51%
    11:00 +18°C° 0 mm 2 m/S 761 mmHg 45%
    12:00 +19°C° 0 mm 2 m/S 761 mmHg 40%
    13:00 +19°C° 0 mm 2 m/S 761 mmHg 40%
    14:00 +19°C° 0 mm 2 m/S 761 mmHg 39%
    15:00 +19°C° 0 mm 2 m/S 761 mmHg 39%
    16:00 +19°C° 0 mm 2 m/S 761 mmHg 43%
    17:00 +18°C° 0 mm 2 m/S 761 mmHg 46%
    18:00 +17°C° 0 mm 2 m/S 761 mmHg 50%
    19:00 +16°C° 0 mm 2 m/S 762 mmHg 53%
    20:00 +15°C° 0 mm 1 m/S 762 mmHg 56%
    21:00 +14°C° 0 mm 1 m/S 763 mmHg 60%
    22:00 +13°C° 0 mm 1 m/S 763 mmHg 62%
    23:00 +13°C° 0 mm 2 m/S 762 mmHg 63%

    30 Mai, Donnerstag

    Zeit Temperatur Niederschläge Wind Luftdruck Luftfeuchtigkeit
    00:00 +12°C° 0 mm 2 m/S 762 mmHg 65%
    01:00 +12°C° 0 mm 2 m/S 762 mmHg 67%
    02:00 +12°C° 0 mm 2 m/S 762 mmHg 68%
    03:00 +11°C° 0 mm 3 m/S 762 mmHg 69%
    04:00 +12°C° 0 mm 3 m/S 762 mmHg 70%
    05:00 +12°C° 0 mm 3 m/S 762 mmHg 71%
    06:00 +13°C° 0 mm 4 m/S 762 mmHg 72%
    07:00 +14°C° 0 mm 4 m/S 762 mmHg 66%
    08:00 +16°C° 0 mm 5 m/S 762 mmHg 60%
    09:00 +17°C° 0 mm 5 m/S 761 mmHg 54%
    10:00 +17°C° 0.1 mm 5 m/S 761 mmHg 58%
    11:00 +19°C° 0.1 mm 5 m/S 761 mmHg 62%
    12:00 +19°C° 0.1 mm 6 m/S 761 mmHg 66%
    13:00 +19°C° 0.1 mm 6 m/S 760 mmHg 69%
    14:00 +17°C° 0.1 mm 6 m/S 760 mmHg 72%
    15:00 +17°C° 0.1 mm 6 m/S 760 mmHg 74%
    16:00 +16°C° 0.5 mm 5 m/S 760 mmHg 79%
    17:00 +16°C° 0.5 mm 5 m/S 760 mmHg 83%
    18:00 +15°C° 0.5 mm 5 m/S 760 mmHg 87%
    19:00 +15°C° 0.6 mm 5 m/S 760 mmHg 88%
    20:00 +15°C° 0.6 mm 5 m/S 761 mmHg 89%
    21:00 +15°C° 0.6 mm 5 m/S 761 mmHg 90%
    22:00 +15°C° 0.2 mm 4 m/S 761 mmHg 91%
    23:00 +15°C° 0.2 mm 4 m/S 761 mmHg 92%

    31 Mai, Freitag

    Zeit Temperatur Niederschläge Wind Luftdruck Luftfeuchtigkeit
    00:00 +15°C° 0.2 mm 4 m/S 761 mmHg 93%
    01:00 +15°C° 0.5 mm 4 m/S 761 mmHg 93%
    02:00 +14°C° 0.5 mm 3 m/S 761 mmHg 93%
    03:00 +14°C° 0.5 mm 3 m/S 762 mmHg 94%
    04:00 +14°C° 0.3 mm 4 m/S 762 mmHg 91%
    05:00 +13°C° 0.3 mm 4 m/S 763 mmHg 89%
    06:00 +12°C° 0.3 mm 4 m/S 764 mmHg 86%
    07:00 +13°C° 0 mm 4 m/S 764 mmHg 79%
    08:00 +14°C° 0 mm 4 m/S 765 mmHg 72%
    09:00 +14°C° 0 mm 3 m/S 765 mmHg 64%
    10:00 +15°C° 0 mm 4 m/S 766 mmHg 57%
    11:00 +18°C° 0 mm 4 m/S 766 mmHg 50%
    12:00 +19°C° 0 mm 4 m/S 766 mmHg 43%
    13:00 +19°C° 0 mm 4 m/S 767 mmHg 41%
    14:00 +19°C° 0 mm 4 m/S 767 mmHg 39%
    15:00 +19°C° 0 mm 4 m/S 767 mmHg 37%
    16:00 +18°C° 0 mm 4 m/S 768 mmHg 43%
    17:00 +18°C° 0 mm 4 m/S 768 mmHg 49%
    18:00 +17°C° 0 mm 4 m/S 768 mmHg 54%
    19:00 +16°C° 0 mm 3 m/S 769 mmHg 59%
    20:00 +13°C° 0 mm 3 m/S 770 mmHg 63%
    21:00 +12°C° 0 mm 3 m/S 770 mmHg 67%
    22:00 +12°C° 0 mm 2 m/S 770 mmHg 69%
    23:00 +12°C° 0 mm 2 m/S 771 mmHg 72%
    Mehr zeigen